Retour au catalogue

JILIN-1 GAOFEN 03D-47

ActifScienceSSO
NORAD 54692·PAYLOAD·🇨🇳 China
Ce nom de satellite n'a pas encore été confirmé par des sources officielles.

Lancé Dec 9, 2022 depuis Yellow Sea Launch Area

Loading…

Prochains Passages (prochaines 24 heures)

TLE

FraisSource: Space-Track

Époque: Sep 14, 2026, 15:30 UTC

1 54692U 22167L   26257.64599890  .00008206  00000-0  24136-3 0  9991
2 54692  97.7004  71.0537 0007976 152.3744 207.7924 15.35339316209060

Suivez JILIN-1 GAOFEN 03D-47 en temps réel avec AllMySat

Download on the App Store